Location: Cork
(51.8990°N, 8.4960°W)
Time: 08:59:05
(UTC+00:00)

Iridium 66 - Visible Passes

Search period start: 25 February 2017 00:00
Search period end: 07 March 2017 00:00
Orbit: 776 x 779 km, 86.4° (Epoch: 24 February)

Date Brightness Start Highest point End Pass type
(mag) Time Alt. Az. Time Alt. Az. Time Alt. Az.
25 Feb 9.5 06:30:11 10° ENE 06:30:24 10° ENE 06:30:35 10° ENE visible
25 Feb 6.5 20:09:22 10° N 20:14:32 62° W 20:19:41 10° SSW visible
25 Feb 9.2 21:53:20 10° WNW 21:54:10 10° WNW 21:55:01 10° WNW visible
26 Feb 5.9 19:35:46 10° N 19:41:02 81° E 19:46:16 10° S visible
26 Feb 8.7 21:17:45 10° NW 21:21:06 17° WNW 21:24:26 10° WSW visible
27 Feb 6.2 19:02:19 10° N 19:07:25 49° E 19:12:28 10° SSE visible
27 Feb 8.0 20:43:30 10° NNW 20:47:54 28° W 20:52:16 10° SW visible
28 Feb 9.1 06:27:37 10° ESE 06:30:13 14° ENE 06:32:48 10° NE visible
28 Feb 7.1 20:09:36 10° NNW 20:14:35 45° W 20:19:31 10° SSW visible
01 Mar 6.2 19:35:54 10° N 19:41:09 76° W 19:46:21 10° S visible
01 Mar 9.1 21:18:41 10° NW 21:20:57 13° WNW 21:23:13 10° W visible
02 Mar 6.0 19:02:21 10° N 19:07:35 66° E 19:12:47 10° SSE visible
02 Mar 8.6 20:43:59 10° NNW 20:47:49 21° WNW 20:51:38 10° SW visible
03 Mar 9.0 06:26:32 10° ESE 06:30:04 19° ENE 06:33:37 10° NNE visible
03 Mar 7.8 20:09:54 10° NNW 20:14:34 34° W 20:19:13 10° SW visible
04 Mar 9.4 05:55:24 10° E 05:56:59 11° ENE 05:58:32 10° NE visible
04 Mar 6.8 19:36:06 10° NNW 19:41:12 56° W 19:46:18 10° SSW visible
05 Mar 6.1 19:02:27 10° N 19:07:44 89° E 19:12:57 10° S visible
05 Mar 9.1 20:44:39 10° NW 20:47:42 16° WNW 20:50:44 10° WSW visible
06 Mar 8.7 06:25:48 10° SE 06:29:58 25° E 06:34:11 10° NNE visible
06 Mar 8.4 20:10:18 10° NNW 20:14:31 25° W 20:18:43 10° SW visible
